Powrót do katalogu

STARLINK-30153

AktywnyŁącznośćVLEO
NORAD 57510·PAYLOAD·🇺🇸 United States

Wystrzelony Aug 7, 2023 z Cape Canaveral Space Force Station

Loading…

Następne Przeloty (najbliższe 24 godziny)

TLE

ŚwieżeSource: CelesTrak SupGP

Epoka: Sep 14, 2026, 21:12 UTC

1 57510C 23113R   26257.88381944  .00035277  00000+0  12772-2 0  2576
2 57510  43.0043  27.2634 0001968 276.2873 100.7494 15.27572227    13

Śledź STARLINK-30153 w czasie rzeczywistym z AllMySat

Download on the App Store